Location: *
(46.1006°N, 1.8394°E)
Time: 01:10:07
(UTC+00:00)

Cosmos 2297 Rocket - Pass Details

Date: 20 September 2019
Orbit: 841 x 842 km, 71.0° (Epoch: 20 October)

Event Time Altitude Azimuth Distance (km) Brightness Sun altitude
Rises 18:41:45 0° 171° (S) 3,383 5.1 -8.9°
Reaches altitude 10° 18:44:29 10° 160° (SSE) 2,453 4.3 -9.3°
Maximum altitude 18:49:10 28° 103° (ESE) 1,541 3.0 -10.1°
Drops below altitude 10° 18:53:53 10° 47° (NE) 2,468 4.3 -10.9°
Sets 18:56:38 0° 36° (NE) 3,407 5.1 -11.4°
